Dewpoint
58 58 58 58 59 59 59 59 60 60 61 61 62 62 62 61 61 61 61 61 60 60 61 61 62 63 62 63 62 62 58 46 37 33 24 30 45 61 63 63 63 64 62 41 36 32 28 25 27 33 36 37 40 38 42 39 38 40 27 23 22 23 22 24 21 23 24 19 20 20 21 19 19 23 22 23 24 23 24 26 26 25 25 25 30 31 31 30
57 57 57 58 58 58 59 59 60 60 60 61 61 61 62 61 60 60 61 60 61 61 61 62 62 63 63 62 62 60 52 44 36 33 27 52 60 61 63 64 64 64 55 37 32 30 28 22 29 32 32 30 40 36 38 37 38 29 28 21 17 24 23 22 21 23 19 20 20 20 21 20 19 22 22 20 22 22 22 24 25 24 25 25 26 28 30 28
56 57 57 57 58 58 58 58 59 59 60 60 61 61 61 61 61 60 60 61 60 60 61 62 62 62 62 62 61 60 51 45 33 27 32 57 60 62 63 62 63 65 48 34 36 26 23 24 29 29 31 29 32 32 33 31 35 30 26 19 18 28 24 22 22 22 22 20 20 20 20 20 20 21 22 20 20 22 21 21 24 24 24 24 25 26 29 27
56 56 57 57 57 57 58 58 58 59 59 60 60 60 61 61 61 61 61 61 61 61 61 61 62 62 62 61 61 61 47 37 27 29 35 55 60 62 63 63 61 57 42 37 36 34 31 30 29 28 31 28 31 35 29 32 29 31 20 18 21 24 21 20 22 21 22 21 20 20 20 20 21 21 21 20 19 20 21 21 22 23 24 25 25 28 30 28
56 56 56 56 56 57 57 58 58 59 59 59 60 60 60 61 61 61 60 60 60 60 61 61 62 62 61 60 55 57 40 26 29 38 42 57 60 61 61 63 60 48 42 34 29 28 28 25 25 29 29 22 29 27 22 28 29 28 16 19 22 26 21 19 21 23 22 21 19 19 19 19 22 22 21 21 18 17 19 21 22 21 22 24 25 28 29 27
56 56 57 56 56 56 56 57 58 59 59 60 60 60 60 61 61 60 60 60 60 60 60 61 62 61 61 59 53 47 34 5 36 39 57 56 60 59 60 59 54 36 31 27 28 28 25 24 25 25 22 22 24 21 20 24 25 18 18 18 21 24 19 20 21 22 21 20 18 18 19 21 20 20 21 21 19 18 22 23 23 22 24 24 25 28 29 28
57 57 56 57 56 56 57 58 59 59 59 60 59 59 60 61 61 61 60 60 60 60 60 61 62 61 60 58 51 37 33 35 40 45 54 58 56 58 59 54 49 38 29 23 26 29 28 24 24 27 25 25 22 19 20 25 23 19 16 19 21 24 21 21 21 24 21 20 19 19 20 19 20 18 21 21 21 21 22 22 23 23 24 23 24 27 28 28
57 57 57 57 57 56 57 58 58 58 59 59 59 59 60 60 60 60 60 59 60 60 60 60 62 59 58 53 41 36 37 32 36 44 53 54 45 52 48 42 39 42 27 25 26 28 30 26 23 27 22 20 21 21 23 21 20 18 17 20 22 23 23 23 22 22 21 20 18 19 18 18 19 19 20 20 20 21 22 22 22 22 23 23 23 25 28 28
57 57 57 56 56 56 57 57 58 58 59 59 59 60 60 60 60 60 60 60 60 60 60 61 61 60 57 44 36 29 25 45 37 41 46 45 40 47 46 34 35 31 30 31 29 34 33 29 26 25 21 21 24 19 21 17 17 20 19 22 22 21 21 20 20 21 21 21 19 18 18 17 17 22 18 18 19 21 22 22 22 22 23 22 23 24 26 26
56 56 56 56 56 56 57 57 57 58 58 59 59 59 60 60 60 60 60 60 60 60 60 62 61 59 48 42 36 20 37 38 41 42 41 42 39 39 40 46 31 30 28 30 27 28 29 30 31 31 29 24 25 19 24 20 17 22 23 23 21 20 20 21 20 20 20 21 19 19 19 18 21 18 16 18 20 21 22 22 21 21 21 22 22 24 24 25
56 56 56 56 56 56 57 57 57 57 58 58 59 59 59 60 59 60 60 60 59 59 60 60 61 58 45 35 29 19 45 43 39 43 41 43 40 35 42 43 40 32 29 35 31 32 30 32 36 32 33 22 21 20 19 18 22 22 21 21 21 21 20 20 19 19 19 19 19 19 18 18 19 23 17 18 21 21 20 21 21 21 22 21 22 22 26 23
57 56 56 56 56 56 56 56 56 57 58 58 58 59 59 59 59 59 59 59 59 59 60 57 58 47 35 33 29 31 38 40 44 44 44 46 45 46 46 42 39 46 31 26 37 43 41 38 38 23 22 25 20 20 19 22 20 19 19 16 18 19 18 20 18 19 20 18 19 18 17 16 19 17 18 19 21 21 20 20 21 21 21 23 22 22 24 24
57 56 56 56 56 56 56 56 56 56 57 58 58 58 59 59 59 59 59 59 59 59 61 58 51 47 39 28 31 41 40 39 43 42 41 44 43 42 42 43 43 38 39 28 36 44 43 38 34 26 30 24 22 19 23 22 20 19 20 18 17 18 17 20 19 19 19 18 18 18 15 14 16 18 18 20 20 20 20 20 21 23 21 21 22 21 23 23
57 56 56 56 56 56 55 56 56 56 57 58 58 58 58 59 59 59 58 59 60 61 60 56 55 43 32 24 36 39 39 41 39 40 44 43 37 41 42 41 42 40 46 40 42 41 40 35 35 28 31 21 19 26 19 20 21 17 18 20 21 19 16 19 20 18 17 21 18 17 19 14 17 17 19 22 20 20 19 19 20 22 23 21 23 22 22 22
57 57 56 56 56 56 55 56 56 56 57 57 58 58 58 57 58 58 59 60 60 61 58 54 52 40 27 25 35 37 53 40 35 44 44 37 34 36 36 37 38 37 37 39 41 41 35 38 35 25 24 24 25 20 17 19 19 19 17 20 27 18 19 19 22 18 17 18 18 18 21 18 18 19 20 21 21 19 19 18 19 21 22 21 21 21 20 22
57 57 57 56 56 56 56 56 56 56 56 57 57 57 57 57 57 57 61 60 60 59 58 50 43 39 28 22 38 53 40 34 33 43 44 40 44 34 41 37 38 35 34 32 35 33 32 34 27 24 23 18 19 21 22 23 23 21 19 24 22 25 22 16 23 22 21 19 20 18 16 14 15 19 18 20 20 20 19 19 19 20 20 21 20 21 21 22
57 57 57 56 56 56 56 55 55 56 56 56 57 57 57 56 56 59 59 58 58 56 51 38 40 35 15 34 37 33 33 39 44 45 43 39 38 38 37 36 33 32 35 32 35 35 30 26 30 29 24 22 20 24 23 25 24 24 25 19 29 17 15 15 20 19 24 19 18 18 17 17 17 18 18 19 20 20 19 19 19 20 20 20 22 21 21 21
57 57 57 57 56 56 55 55 56 55 56 56 56 57 55 54 58 56 55 53 53 53 47 47 47 29 24 32 25 26 43 37 45 43 44 37 37 33 33 29 32 34 34 28 31 28 30 27 30 25 25 23 18 22 25 17 23 23 22 22 18 20 17 15 17 18 17 19 17 17 18 18 18 18 18 19 20 19 19 19 19 19 20 21 22 22 20 21
58 57 57 57 57 56 56 56 55 56 56 56 56 55 53 51 49 46 38 36 39 30 21 30 24 18 14 20 32 36 42 43 41 41 33 37 39 34 33 31 35 24 29 23 24 28 31 32 33 29 24 23 19 20 21 25 23 20 21 21 20 18 18 18 18 20 17 17 17 17 18 17 18 18 19 19 19 19 18 19 19 19 19 21 21 23 22 22
58 57 57 57 57 56 56 56 55 56 56 55 53 47 45 35 35 21 29 30 26 23 25 25 29 28 32 30 33 39 42 40 34 36 40 38 35 31 27 29 39 32 26 27 33 30 35 27 25 26 24 23 22 21 21 22 22 23 29 28 20 22 21 21 21 19 18 19 19 20 20 19 20 20 20 19 20 20 19 19 20 20 21 21 21 22 23 22
57 57 57 57 57 56 56 56 55 55 56 54 50 37 17 21 19 17 24 23 29 32 25 26 26 26 21 36 41 37 32 32 33 37 39 38 32 27 26 26 27 27 27 31 35 30 30 25 26 27 23 23 23 21 21 21 21 21 24 26 21 28 19 20 21 17 19 19 18 18 19 19 18 18 19 19 19 18 18 19 20 19 20 22 23 23 24 22
57 57 57 56 56 56 56 55 55 55 53 50 41 27 27 26 36 34 27 18 40 40 35 34 32 25 29 31 38 39 36 28 31 37 39 37 28 26 26 25 27 23 33 33 29 29 29 26 24 28 26 23 23 22 21 21 24 25 23 24 25 21 26 22 21 21 19 20 18 19 19 20 20 20 21 21 21 21 21 22 21 21 23 22 23 23 23 24
57 57 56 56 56 56 55 55 55 52 47 44 41 36 40 46 48 48 37 32 31 39 36 36 26 27 27 34 38 35 27 25 18 37 36 35 28 28 26 23 25 27 30 26 26 29 26 27 25 26 26 23 19 19 20 22 25 24 24 22 21 28 23 20 23 20 20 18 21 22 21 21 21 22 22 22 22 22 25 25 26 28 25 24 23 23 24 23
57 57 57 57 56 55 56 55 55 50 49 46 43 44 47 45 46 47 40 30 28 30 33 38 29 30 29 24 34 31 25 24 23 25 36 31 27 31 25 21 22 26 22 25 23 25 20 28 27 25 29 23 24 22 21 22 21 28 29 25 23 28 24 22 20 22 21 22 25 21 22 22 22 19 19 20 22 22 22 23 24 26 31 29 32 29 26 22
57 57 57 56 56 56 56 56 49 50 48 46 42 45 45 45 46 46 33 26 24 28 40 36 41 41 35 41 38 29 32 30 31 31 35 32 26 24 23 24 21 20 23 26 25 28 25 26 29 25 28 28 29 20 25 29 23 25 30 26 26 28 23 27 26 22 20 20 22 25 7 4 25 22 22 22 21 20 20 21 22 23 23 28 26 27 28 30
57 57 57 56 56 56 55 50 47 50 46 44 44 46 46 45 46 45 24 22 24 27 26 22 40 29 42 32 40 37 26 22 29 30 33 33 34 25 23 22 22 23 23 27 24 28 25 26 31 31 29 30 30 27 31 29 24 24 25 31 27 26 28 26 25 23 18 16 24 25 9 10 17 12 16 17 20 18 22 26 25 25 26 26 27 27 26 27
57 57 57 56 56 55 49 41 49 48 41 44 46 46 45 45 45 45 9 18 11 29 23 35 29 32 40 35 34 29 17 26 26 29 28 34 29 32 21 21 23 25 27 27 25 22 27 25 27 31 30 31 29 23 32 25 26 21 29 29 28 28 26 27 25 25 20 25 27 24 21 15 16 13 11 11 17 16 17 17 20 19 18 25 25 26 26 27
57 57 57 56 55 54 50 51 50 47 39 47 48 44 43 46 47 40 8 -1 8 37 27 28 34 41 38 34 36 22 23 26 25 27 24 29 28 25 23 22 22 24 24 27 20 32 26 29 28 28 28 25 24 29 33 30 25 27 28 30 29 27 29 27 26 22 22 19 19 22 27 19 19 21 16 17 14 15 15 15 19 21 24 25 28 27 27 27
57 57 56 56 54 52 52 51 49 47 46 49 46 45 45 44 38 19 14 5 33 28 38 28 37 34 32 32 29 26 25 29 21 24 31 27 31 26 23 24 24 24 23 27 22 31 26 31 30 32 28 24 29 24 27 32 25 28 27 27 26 27 26 26 21 20 19 19 20 19 24 12 11 22 17 20 19 18 19 20 20 22 24 28 30 28 26 26
57 57 57 55 53 53 51 47 48 47 48 46 46 44 42 40 19 15 5 8 29 11 26 31 29 31 33 30 29 29 26 27 22 24 23 25 27 28 25 26 23 25 28 24 29 31 26 28 33 28 28 31 24 24 27 26 29 28 30 28 26 24 20 20 19 20 21 18 21 21 23 14 14 18 20 19 21 19 19 20 20 22 25 24 25 28 30 26
56 57 57 55 51 52 50 48 49 48 47 46 46 43 41 28 19 12 10 17 16 20 31 30 27 34 29 29 27 29 29 26 24 23 22 23 23 23 23 23 29 29 24 25 25 33 26 27 29 30 28 27 27 27 27 27 28 29 23 21 24 24 17 19 21 21 17 14 18 15 22 21 13 15 23 16 19 19 18 16 14 18 20 25 28 27 26 26
56 57 57 55 55 52 48 47 49 48 47 47 43 38 22 18 18 7 5 -7 5 23 28 29 33 33 31 35 34 30 28 28 26 22 21 22 24 23 23 23 25 25 22 23 23 28 26 27 28 31 31 30 31 26 25 27 26 26 23 22 20 19 18 14 17 13 14 12 19 16 19 18 14 8 17 16 15 16 18 17 16 18 19 27 28 30 28 28
56 56 56 56 53 53 51 51 50 49 48 47 40 29 19 17 15 16 7 12 9 32 21 37 32 32 35 32 31 32 32 28 26 21 29 27 25 27 31 28 32 28 18 27 22 22 24 27 27 31 29 30 31 22 23 22 21 23 21 21 20 17 16 14 13 11 11 21 16 13 18 9 10 12 14 13 13 14 18 20 24 24 22 26 30 31 27 29
56 56 55 54 54 53 51 50 50 48 48 43 36 23 22 9 17 28 19 14 17 30 33 33 30 32 33 28 33 33 27 35 27 24 26 26 23 24 25 28 27 27 24 20 18 21 17 17 24 26 22 33 29 26 29 27 22 21 26 22 21 18 16 11 8 6 8 10 18 15 11 16 10 6 15 13 14 15 17 20 25 27 27 30 27 26 28 29
56 56 57 54 54 54 50 49 49 49 47 39 29 25 19 17 16 12 18 18 19 30 30 32 32 31 30 30 31 31 32 28 32 27 25 25 21 21 25 23 30 27 29 18 22 21 20 19 27 29 28 29 30 31 32 27 23 22 26 26 22 21 17 11 15 13 17 14 16 16 11 13 8 18 24 22 20 18 20 19 23 23 24 29 27 26 26 26
55 55 56 52 52 53 51 50 50 49 43 37 29 25 21 22 18 23 19 18 23 26 29 29 33 27 27 27 29 32 33 29 30 28 26 26 27 25 29 28 28 26 23 21 22 20 17 14 24 27 28 25 26 29 28 30 21 21 23 22 22 23 17 16 22 20 18 16 14 20 11 17 15 15 15 17 18 17 19 19 19 20 23 27 28 29 27 27
53 55 51 52 52 53 51 49 50 47 42 39 27 22 24 25 21 28 32 12 18 26 28 11 23 20 23 22 26 29 31 28 27 26 23 26 24 28 25 29 32 29 26 25 22 27 20 25 24 27 24 25 19 21 28 29 27 23 21 21 27 30 26 20 12 19 16 12 13 17 17 12 13 13 18 15 15 14 17 18 18 21 25 24 26 30 31 31
53 53 53 51 52 53 51 50 50 45 37 31 26 29 31 24 20 15 31 26 23 30 23 16 17 28 22 19 18 26 31 26 26 24 23 23 20 32 29 27 30 28 25 27 21 30 26 18 21 24 23 25 24 26 24 28 28 22 21 32 19 16 16 17 17 12 11 11 13 15 14 16 14 14 13 16 15 15 15 17 18 18 21 23 26 27 28 29
54 51 47 51 53 52 50 51 50 43 35 31 27 28 31 25 22 24 26 22 30 28 16 21 13 25 24 15 18 25 28 21 24 23 19 22 21 30 28 29 30 28 26 26 23 24 27 19 17 25 23 25 23 24 21 21 25 27 24 21 21 16 23 19 17 19 13 14 14 16 19 14 21 14 15 13 15 18 14 17 17 17 19 21 25 27 28 28
50 46 46 52 53 51 51 51 47 43 35 29 29 28 33 30 24 28 26 19 25 22 20 16 24 11 21 22 28 18 28 26 23 25 22 25 23 27 25 31 32 32 25 26 26 33 21 20 17 26 25 24 19 20 22 23 22 19 17 18 15 23 19 19 16 19 13 13 11 12 13 15 18 16 13 10 12 15 16 18 23 23 22 22 24 27 30 29
51 47 46 52 52 51 51 49 43 38 36 35 34 30 32 28 30 25 27 25 30 25 19 26 21 14 15 21 17 23 24 24 23 20 23 23 20 17 27 29 35 30 28 29 27 28 25 18 19 20 19 19 21 25 27 30 27 22 18 17 17 18 16 15 15 18 19 13 13 10 13 16 19 10 10 12 14 21 21 21 25 25 22 23 26 27 27 31
48 41 45 52 52 51 48 40 40 41 39 34 33 33 31 33 29 33 29 31 30 26 27 24 28 26 20 18 20 26 24 23 25 23 23 23 26 20 28 29 33 30 26 25 24 28 25 23 22 21 20 22 24 23 22 25 29 25 21 20 22 18 17 17 14 20 18 17 18 17 13 14 21 22 20 22 20 16 23 25 21 25 25 24 27 27 28 27
46 44 49 51 52 50 45 39 40 39 38 38 39 37 36 35 32 32 27 29 27 28 27 28 24 25 27 23 28 23 25 23 29 25 26 27 27 25 29 29 34 32 33 24 31 27 30 25 22 20 22 21 20 21 22 23 28 22 23 22 20 16 18 17 16 19 16 17 15 14 13 16 22 21 18 22 24 23 22 23 23 22 24 25 27 28 27 28
46 44 44 50 52 50 42 34 35 36 38 40 38 36 37 32 32 30 28 29 26 29 25 23 27 19 23 29 22 18 24 17 28 28 24 31 26 28 30 34 28 29 27 24 23 30 23 25 20 21 22 18 18 18 19 20 22 19 18 21 23 23 22 21 21 20 15 18 16 15 13 15 24 22 22 22 20 20 20 21 23 26 27 29 27 28 29 28
46 45 44 46 49 48 40 42 40 38 37 38 38 37 36 36 37 32 28 27 28 25 27 23 21 28 26 28 26 22 28 20 17 32 25 21 21 28 32 35 26 26 24 35 30 30 22 23 21 19 16 16 15 14 18 20 20 19 20 20 23 23 20 18 17 19 16 17 15 15 13 14 13 16 16 18 18 16 18 21 21 25 27 26 29 30 28 28
43 36 42 42 45 44 44 45 42 42 39 38 37 37 37 36 36 38 36 32 26 30 25 32 33 25 24 26 22 23 24 27 22 15 23 21 22 26 27 33 27 28 31 32 32 27 26 22 20 17 18 17 14 13 14 24 20 20 21 22 20 23 23 21 21 19 17 17 17 18 17 15 16 14 15 14 13 12 10 19 19 20 21 24 27 29 30 28
44 41 36 33 41 41 40 42 41 41 38 41 36 38 36 37 37 36 38 33 34 28 30 28 28 27 26 24 22 20 21 22 25 23 20 16 25 24 26 30 28 30 33 31 32 28 28 21 21 21 20 17 14 16 15 25 17 19 21 20 22 22 24 24 21 18 18 19 15 19 19 21 18 17 16 16 15 15 16 15 15 21 24 25 25 25 27 23
40 42 43 41 38 33 35 36 40 40 41 41 38 38 37 37 36 35 37 36 36 33 29 31 28 27 25 25 24 22 21 22 23 22 24 23 19 22 22 26 27 33 29 29 33 28 21 21 23 22 21 21 19 16 15 17 19 16 20 21 20 21 24 24 24 22 21 19 16 18 19 20 18 17 16 16 16 17 16 15 16 17 20 23 27 25 23 22
46 43 44 45 39 40 38 37 39 39 39 40 39 38 37 37 36 37 37 35 35 33 31 29 29 28 26 26 29 24 24 20 23 25 24 23 24 26 27 27 29 30 28 27 27 29 25 22 23 22 21 21 22 22 22 18 16 19 20 21 23 22 21 23 23 24 22 20 20 21 20 18 17 15 14 16 19 19 17 18 21 23 22 22 23 24 26 26
42 42 40 44 43 41 39 38 39 39 37 39 36 37 37 36 36 38 38 35 33 33 34 31 31 32 32 30 29 25 25 25 24 24 26 25 25 25 24 24 26 27 28 27 28 30 24 22 25 22 22 22 22 22 21 20 19 16 18 22 22 21 22 24 24 24 25 22 23 23 22 21 21 20 20 22 21 21 21 20 19 21 22 21 22 23 23 25
45 48 46 42 38 39 40 39 38 38 36 37 36 36 37 37 36 37 37 37 36 34 33 31 32 33 33 30 28 27 28 28 28 28 28 29 24 30 26 31 32 29 29 28 28 27 26 26 26 24 21 22 23 22 21 20 20 18 18 18 18 17 16 18 21 22 22 21 20 21 21 20 19 21 21 22 21 20 20 20 21 22 23 22 23 24 25 24
46 47 46 43 37 41 39 40 39 38 34 36 37 36 37 37 37 37 35 37 37 37 36 35 34 33 33 30 29 29 30 30 31 31 28 28 37 35 36 36 37 32 30 29 30 27 27 27 24 24 22 22 25 25 25 24 23 23 23 20 21 20 20 20 21 22 21 22 20 19 20 18 19 21 20 21 20 20 21 21 23 23 23 24 25 24 24 25